Location: Newark
(25.0000°N, 73.5000°E)
Time: 01:15:00
(UTC+00:00)

Tiros 1 despin weight - Pass Details

Date: 09 March 2021
Orbit: 593 x 641 km, 48.2° (Epoch: 15 April)

Event Time Altitude Azimuth Distance (km) Brightness Sun altitude
Rises 21:19:19 0° 336° (NNW) 2,913 - -53.9°
Reaches altitude 10° 21:23:38 10° 14° (NNE) 2,015 - -53.0°
Maximum altitude 21:24:46 11° 28° (NNE) 1,965 - -52.8°
Drops below altitude 10° 21:25:55 10° 42° (NE) 2,019 - -52.6°
Sets 21:30:14 0° 80° (E) 2,932 - -51.7°
